• Join FlightAware (Why Join?)
  • Login
  • US Flag GB Flag 
13:44 EDT


 

Airport Tracker/Info


-or-


 

Live Flight TrackerFlight Track Log ✈ N1944E ✈ 30-Apr-2013 ✈ KRKS - KCOD

Flight Track Log - Related Links

Times and Time Zones

All times are in EDT time to prevent confusion due to time zone crossing. See the N1944E flight status page for this flight to view local times or setup timezone preferences in your user account.

Time Position Orientation Groundspeed Altitude Reporting Facility
EDT Latitude Longitude Course Direction KTS MPH feet Rate Location/Type
18:45 41.6700 -109.0306 31° Northeast 155 178 9,500  Level Salt Lake Center
18:46 41.7069 -109.0067 26° Northeast 154 177 10,100 720 Climbing Salt Lake Center
18:47 41.7442 -108.9858 23° Northeast 152 175 11,000 780 Climbing Salt Lake Center
18:48 41.7881 -108.9589 25° Northeast 154 177 11,700 660 Climbing Salt Lake Center
18:49 41.8278 -108.9286 30° Northeast 162 186 12,400 1,020 Climbing Salt Lake Center
18:50 41.8714 -108.8850 37° Northeast 170 196 13,900 1,020 Climbing Salt Lake Center
18:51 41.8634 -108.8593 31° Northeast  Level FlightAware Approximate
18:51 41.9103 -108.8519 32° Northeast 172 198 14,600  Level Salt Lake Center
18:52 41.9619 -108.8144 28° Northeast 181 208 15,500 660 Climbing Salt Lake Center
18:53 42.0072 -108.7806 29° Northeast 188 216 16,000 540 Climbing Salt Lake Center
18:55 42.0567 -108.7486 26° Northeast 197 227 16,700 540 Climbing Salt Lake Center
18:56 42.1092 -108.7067 31° Northeast 199 229 17,200 540 Climbing Salt Lake Center
18:57 42.1550 -108.6642 35° Northeast 202 232 17,900 300 Climbing Salt Lake Center
18:58 42.2142 -108.6175 30° Northeast 212 244 17,900  Level Salt Lake Center
18:59 42.2692 -108.5742 30° Northeast 227 261 17,900  Level Salt Lake Center
19:00 42.3219 -108.5344 29° Northeast 230 265 17,900  Level Salt Lake Center
19:01 42.3822 -108.4919 28° Northeast 224 258 18,000 -60 Climbing Salt Lake Center
19:02 42.4356 -108.4594 24° Northeast 220 253 17,800  Descending Salt Lake Center
19:03 42.5033 -108.4431 10° North 219 252 18,000  Climbing Salt Lake Center
19:04 42.5592 -108.4492 355° North 211 243 17,800 -60 Descending Salt Lake Center
19:05 42.6228 -108.4647 350° North 208 239 17,900 60 Climbing Salt Lake Center
19:06 42.6775 -108.4825 347° North 211 243 18,000  Climbing Salt Lake Center
19:07 42.7322 -108.4931 352° North 208 239 17,900 -120 Descending Salt Lake Center
19:08 42.7894 -108.5197 341° North 196 226 17,800 -60 Descending Salt Lake Center
19:09 42.8386 -108.5486 337° Northwest 199 229 17,800 -180 Level Salt Lake Center
19:10 42.8942 -108.5831 336° Northwest 197 227 17,500 -480 Descending Salt Lake Center
19:11 42.9475 -108.6108 339° North 209 241 16,900 -660 Descending Salt Lake Center
19:12 43.0169 -108.6347 346° North 229 264 16,200 -540 Descending Salt Lake Center
19:13 43.0769 -108.6472 351° North 229 264 15,800 -180 Descending Salt Lake Center
19:14 43.1353 -108.6503 358° North 222 255 15,900  Climbing Salt Lake Center
19:15 43.2003 -108.6517 359° North 212 244 15,800  Descending Salt Lake Center
19:16 43.2519 -108.6606 353° North 203 234 15,900  Climbing Salt Lake Center
19:17 43.3139 -108.6728 352° North 201 231 15,900 -60 Level Salt Lake Center
19:18 43.3658 -108.6881 348° North 198 228 15,800  Descending Salt Lake Center
19:19 43.4181 -108.7067 345° North 199 229 15,900  Climbing Salt Lake Center
19:20 43.4794 -108.7278 346° North 201 231 15,900 -60 Level Salt Lake Center
19:21 43.5331 -108.7447 347° North 204 235 15,800 -60 Descending Salt Lake Center
19:22 43.5986 -108.7394 North 208 239 15,800  Level Salt Lake Center
19:23 43.6531 -108.7297 North 209 241 15,900  Climbing Salt Lake Center
19:24 43.7144 -108.7194 North 203 234 15,900 60 Level Salt Lake Center
19:25 43.7678 -108.7114 North 202 232 16,100 60 Climbing Salt Lake Center
19:26 43.8208 -108.7069 North 200 230 16,100  Level Salt Lake Center
19:27 43.8836 -108.7056 North 200 230 16,100  Level Salt Lake Center
19:28 43.9375 -108.7025 North 201 231 16,100  Level Salt Lake Center
19:29 43.9997 -108.6944 North 202 232 16,100  Level Salt Lake Center
19:30 44.0544 -108.6903 North 203 234 16,100  Level Salt Lake Center
19:31 44.1092 -108.6900 360° North 204 235 16,100 -540 Level Salt Lake Center
19:32 44.1725 -108.6939 357° North 203 234 15,100 -900 Descending Salt Lake Center
19:33 44.2333 -108.6906 North 215 247 14,300 -900 Descending Salt Lake Center
19:35 44.3000 -108.6847 North 217 250 13,300 -780 Descending Salt Lake Center
19:36 44.3569 -108.6822 North 215 247 12,700 -660 Descending Salt Lake Center
19:37 44.4114 -108.6756 North 211 243 12,000 -840 Descending Salt Lake Center
19:38 44.4722 -108.6717 North 203 234 11,100 -840 Descending Salt Lake Center
19:39 44.5236 -108.6678 North 197 227 10,400 -720 Descending Salt Lake Center
19:40 44.5769 -108.6714 357° North 184 212 9,700 -900 Descending Salt Lake Center
19:41 44.6186 -108.7083 328° Northwest 183 211 8,600 -840 Descending Salt Lake Center
19:42 44.6533 -108.7544 317° Northwest 182 209 8,000 -540 Descending Salt Lake Center
19:43 44.6256 -108.8281 242° Southwest 190 219 7,500 -300 Descending Salt Lake Center
19:44 44.6031 -108.8786 238° Southwest 176 203 7,500 -540 Level Salt Lake Center
19:45 44.5731 -108.9306 231° Southwest 161 185 6,500 -1,020 Descending Salt Lake Center